Regional Weather Roundup
Issued by NWS

Home | Current Version | Previous Version | Graphics & Text | Print | Product List | Glossary On
Versions: 1 2 3 4 5 6 7 8 9 10 11 12 13 14 15 16 17 18 19 20 21 22 23 24 25 26 27 28 29 30 31 32 33 34 35 36 37 38 39 40 41 42 43 44 45 46 47 48 49 50
000
ASUS43 KMPX 220201
RWRMN
WEATHER ROUNDUP FOR MINNESOTA
NATIONAL WEATHER SERVICE TWIN CITIES/CHANHASSEN MN
900 PM CDT SUN SEP 21 2014


NOTE: "FAIR" INDICATES FEW OR NO CLOUDS BELOW 12,000 FEET WITH NO
SIGNIFICANT WEATHER AND/OR OBSTRUCTIONS TO VISIBILITY. N/A MEANS
CURRENT SKY AND/OR WEATHER CONDITIONS ARE NOT AVAILABLE.

MNZ060>063-068>070-220300-
   Twin Cities Metro

CITY           SKY/WX    TMP DP  RH WIND       PRES   REMARKS
TWIN CITIES    CLEAR     60  45  57 N3        30.20R
ST PAUL        CLEAR     54  46  74 NW5       30.20R
CRYSTAL        CLEAR     54  47  77 CALM      30.19R
BLAINE         CLEAR     55  48  76 CALM      30.20R
LAKEVILLE      CLEAR     52  46  82 CALM      30.20R
EDEN PRAIRIE   CLEAR     56  49  77 W5        30.19R
SOUTH ST PAUL  CLEAR     55  48  75 CALM      30.19S
LAKE ELMO      FAIR      50  46  87 CALM      30.20S
$$
MNZ001>005-007-008-013>017-022>024-027-028-220300-
   Northwest Minnesota

CITY           SKY/WX    TMP DP  RH WIND       PRES   REMARKS
BEMIDJI        CLOUDY    54  49  85 W5        30.21S
HALLOCK        CLEAR     52  48  87 S8        30.17S
ROSEAU         CLEAR     52  46  82 S6        30.18S
WARROAD        MOCLDY    54  48  82 SW5       30.18S
THIEF RVR FALL CLEAR     52  48  87 CALM      30.20S
CROOKSTON      CLEAR     50  48  93 S7        30.21R
FOSSTON        CLEAR     45  43  93 CALM      30.22S
DETROIT LAKES  CLEAR     52  50  93 CALM      30.24S
MOORHEAD       FAIR      55  54  94 SE5       30.23R
PARK RAPIDS    PTCLDY    48  46  93 NW6       30.22S
MAHNOMEN       FAIR      51  47  87 S3        30.22R
$$
MNZ006-009>011-018-025>026-220300-
   North Central Minnesota

CITY           SKY/WX    TMP DP  RH WIND       PRES   REMARKS
BAUDETTE       MOCLDY    52  48  86 CALM      30.17S
FLAG ISLAND    PTCLDY    55  50  82 SW7       30.15S
INTL FALLS     MOCLDY    52  48  86 W5        30.16S
WASKISH        CLEAR     55  50  82 CALM      30.19S
BIG FORK       PTCLDY    54  48  82 W3        30.20R
LONGVILLE      CLEAR     52  48  87 W3        30.21R
GRAND RAPIDS   CLEAR     52  46  82 W5        30.19S
CRANE LAKE     CLOUDY    48  48 100 CALM      30.17S
ORR            MOCLDY    50  46  87 CALM      30.15S
COOK           CLOUDY    48  46  93 CALM      30.18S
WALKER         FAIR      47  46  95 W3        30.21S
$$
MNZ012-019>021-037-220300-
   Northeast Minnesota

CITY           SKY/WX    TMP DP  RH WIND       PRES   REMARKS
DULUTH         CLEAR     51  43  74 CALM      30.18R
ELY            PTCLDY    43  41  93 CALM      30.16S
HIBBING        CLEAR     44  42  93 W3        30.18R
EVELETH        CLEAR     45  43  93 CALM      30.18S
DULUTH HARBOR  CLEAR     57  50  77 W3        30.18R
TWO HARBORS    CLEAR     46  41  81 NW3       30.15S
SILVER BAY     CLEAR     43  43 100 CALM      30.15S
GRAND MARAIS     N/A     46  43  89 CALM      30.13S
G MARAIS ARPRT CLEAR     46  39  76 W3        30.15R
$$
MNZ029>031-032-039>041-046>048-054>057-064-220300-
   West Central Minnesota

CITY           SKY/WX    TMP DP  RH WIND       PRES   REMARKS
FERGUS FALLS   CLEAR     54  46  76 CALM      30.24R
WHEATON        CLEAR     48  46  93 SE3       30.25S
MORRIS         CLEAR     54  48  82 E5        30.23S
ALEXANDRIA     CLEAR     51  47  86 CALM      30.25R
ELBOW LAKE     FAIR      54  50  86 CALM      30.23S
WADENA         CLEAR     48  46  93 CALM      30.23R
GLENWOOD       CLEAR     52  48  87 CALM      30.25R
APPLETON       CLEAR     52  48  87 CALM      30.24R
BENSON         CLEAR     50  48  93 CALM      30.24R
ORTONVILLE     CLEAR     55  52  88 E3        30.24R
MADISON        CLEAR     54  48  82 CALM      30.24R
WILLMAR        FAIR      54  46  76 CALM      30.25R
$$
MNZ033>034-036-042>043-049>051-058-059-220300-
   Central Minnesota

CITY           SKY/WX    TMP DP  RH WIND       PRES   REMARKS
ST CLOUD       CLEAR     56  49  77 NW6       30.21R
SAUK CENTRE    FAIR      49  46  92 CALM      30.24R
PAYNESVILLE    CLEAR     49  46  92 W3        30.24R
AITKIN         CLEAR     48  43  81 CALM      30.19S
PINE RIVER     CLEAR     54  48  82 CALM      30.24R
BRAINERD       MOCLDY    55  49  80 W6        30.22R
STAPLES        CLEAR     48  46  93 NW3       30.23R
LONG PRAIRIE   FAIR      50  46  87 W3        30.23S
LITTLE FALLS   CLEAR     52  46  82 CALM      30.22S
LITCHFIELD     CLEAR     55  52  88 NW7       30.24R
BUFFALO        CLEAR     57  49  76 W3        30.22R
MAPLE LAKE     CLEAR     55  51  87 W3        30.22R
$$
MNZ037-044-045-052-053-220300-
   East Central Minnesota

CITY           SKY/WX    TMP DP  RH WIND       PRES   REMARKS
PRINCETON      CLEAR     50  48  93 NW1       30.21R
MORA           CLEAR     48  45  87 CALM      30.21S
CAMBRIDGE      CLEAR     52  43  71 CALM      30.18S
RUSH CITY      MOCLDY    48  46  91 CALM      30.20R
MOOSE LAKE     CLEAR     50  45  81 NW5       30.17S
HINCKLEY       FAIR      46  46 100 CALM      30.19R
CLOQUET        CLEAR     46  45  93 W3        30.19R
MCGREGOR       CLEAR     48  46  93 CALM      30.20R
$$
MNZ071>073-080-081-089-090-097-098-220300-
   Southwest Minnesota

CITY           SKY/WX    TMP DP  RH WIND       PRES   REMARKS
MONTEVIDEO     CLEAR     52  46  82 CALM      30.25R
GRANITE FALLS  CLEAR     48  47  96 CALM      30.26R
CANBY          CLEAR     52  49  90 CALM      30.26R
MARSHALL       CLEAR     54  45  71 CALM      30.24R
REDWOOD FALLS  CLEAR     56  50  80 NW3       30.23R
OLIVIA         CLEAR     52  46  82 N3        30.23R
PIPESTONE      CLEAR     55  46  71 CALM      30.25R
WINDOM         CLEAR     52  46  82 CALM      30.25R
WORTHINGTON    CLEAR     52  45  76 N3        30.26R
JACKSON        CLEAR     52  46  82 NW5       30.25R
TRACY          CLEAR     54  48  81 CALM      30.25R
SLAYTON        CLEAR     53  47  82 CALM      30.26R
$$
MNZ065>067-074>077-082>085-091>093-220300-
   South Central Minnesota

CITY           SKY/WX    TMP DP  RH WIND       PRES   REMARKS
MANKATO        CLEAR     55  46  71 NW6       30.22R
NEW ULM        CLEAR     52  48  87 CALM      30.23R
ST JAMES       CLEAR     52  48  87 NW5       30.25R
FAIRMONT       CLEAR     54  46  76 NW3       30.24R
GLENCOE        CLEAR     56  49  78 W6        30.21S
FARIBAULT      CLEAR     55  46  71 CALM      30.21S
OWATONNA       CLEAR     52  48  87 CALM      30.22R
WASECA         CLEAR     50  45  81 NW5       30.23S
ALBERT LEA     CLEAR     55  48  76 CALM      30.22R
$$
MNZ078>079-086>088-094>096-220300-
   Southeast Minnesota

CITY           SKY/WX    TMP DP  RH WIND       PRES   REMARKS
ROCHESTER      CLEAR     52  46  80 NW8       30.21R
RED WING       CLEAR     52  48  87 CALM      30.19R
STANTON        CLEAR     52  48  87 CALM      30.19R
DODGE CENTER   CLEAR     54  48  82 N3        30.21R
WINONA         CLEAR     54  50  87 NW5       30.19R
AUSTIN         CLEAR     54  48  82 NW5       30.21R
PRESTON        CLEAR     53  49  89 N3        30.20R
$$
ABBREVIATIONS USED IN REMARKS
   TC - TEMPERATURES IN CELSIUS
  WCI - WIND CHILL INDEX
   HX - HEAT INDEX
  VSB - VISIBILITY
$$


USA.gov is the U.S. government's official web portal to all federal, state and local government web resources and services.